Weather in Goryachiy Kluch

Russia / Krasnodar Krai     44°38′03″N   39°08′11″E
temp.,
°C
wind,
m/s
gust,
m/s
humid.,
%
clouds,
%
prec.,
mm/h
press.,
hPa
HPBL,
m
16 may, sun
sun1600:00+17wsw229529 0.1 101114
03:00+16n019761 0.8 101111
06:00+17ne019864 0.6 100944
09:00+20ne1394100 0.6 1008393
12:00+26ne4671100 0.0 1006911
15:00+28ene566499 0.0 10041188
18:00+25ne49815 0.3 1002424
21:00+18ese33663 0.3 100128
17 may, mon
mon1700:00+17wsw3118650 0.0 1002236
03:00+17wsw167673 0.0 1003194
06:00+16sse2682100 0.0 1005180
09:00+21sw4959100 0.0 1006887
12:00+25wsw5846100 0.1 10071304
15:00+24w355653 1.4 10081115
18:00+19ssw348599 1.4 100998
21:00+14sw3891100 1.6 1011207
18 may, tue
tue1800:00+14ssw2791100 0.0 1010225
03:00+13wsw229674 0.0 101026
06:00+14ssw249197 0.0 1011117
09:00+19sw356719 0.0 1011784
12:00+23wsw46511 0.0 10101630
15:00+23sw68520 0.0 10101579
18:00+20wsw486476 0.0 1011562
21:00+15s358413 0.1 101195
19 may, wed
wed1900:00+14ssw3390100 0.1 101147
03:00+14sw41294100 0.4 1011571
06:00+13sw3896100 2.8 1013418
09:00+16sw410810 3.3 1014906
12:00+20sw8135522 0.0 10151912
15:00+20sw8135518 0.1 10151955
18:00+17sw712670 0.1 10161292
21:00+14sw613730 0.1 1017772
20 may, thu
thu2000:00+14sw613780 0.0 1018603
03:00+11ssw410920 0.0 1018214
06:00+12ssw24870 0.0 101887
09:00+19ese21522 0.0 1018596
12:00+22ne33395 0.0 10171315
15:00+23ene444480 0.0 10161210
18:00+20ene496334 0.0 1015507
21:00+14ene36860 0.0 101598